RH
3 3 3 3 3 3 4 4 4 5 5 5 6 6 6 5 5 5 4 4 3 3 3 3 3 2 2 2 2 2 2 2 2 2 2 3 3 4 5 5 6 7 7 7 7 8 9 9 12 11 11 11 11 12 11 11 10 9 8 6 7 6 9 11 14 29 37 39 35 28 27 30 31 25 21 25 25 21 17 8 5 11 11 26 42 31 18 17
5 4 4 4 4 4 4 4 5 5 5 6 6 6 6 6 5 5 4 4 4 3 3 3 3 3 2 2 2 2 2 2 1 2 3 3 4 5 7 7 8 9 9 9 9 9 11 11 12 11 12 13 13 13 12 13 11 10 9 7 8 5 13 19 21 36 40 38 38 32 30 28 30 31 27 28 29 25 17 9 11 15 19 38 50 42 31 35
5 5 4 4 4 4 5 5 5 5 6 6 6 7 6 6 6 5 5 4 4 4 3 3 3 3 2 2 2 2 2 1 3 5 4 4 6 7 9 10 11 12 12 12 12 13 13 13 13 13 13 13 14 14 14 15 13 12 9 8 9 7 18 28 29 38 41 41 40 36 35 32 30 31 29 29 33 32 17 12 27 26 27 52 62 56 52 59
5 5 5 5 5 5 5 5 5 6 6 6 6 7 6 6 6 5 5 4 4 4 4 4 3 3 2 2 2 2 2 2 5 8 7 7 9 10 12 14 14 15 15 15 16 16 16 15 15 15 15 15 15 15 14 15 14 13 11 8 11 11 19 32 38 44 46 48 46 38 36 34 32 30 25 25 28 28 15 9 25 29 30 51 63 68 77 83
5 5 5 5 5 5 5 5 6 6 6 6 6 7 7 7 6 6 5 5 5 4 4 4 3 3 2 3 2 2 2 3 10 14 14 14 15 16 17 18 19 19 19 19 20 19 19 18 18 17 16 17 17 16 16 16 15 15 12 11 13 12 21 34 41 47 46 48 48 41 40 35 32 31 25 19 19 18 13 7 12 30 45 49 52 65 82 94
6 6 6 5 5 5 6 6 6 6 6 6 6 7 7 7 7 6 6 5 5 4 4 4 4 3 3 3 2 2 2 3 12 20 21 21 20 21 21 22 23 24 23 23 23 23 23 21 20 19 18 19 18 17 18 19 17 16 13 14 15 13 26 37 37 39 40 45 47 42 44 37 27 29 27 19 15 13 9 10 13 35 62 61 56 62 76 89
6 6 6 5 6 5 6 6 6 6 6 6 6 7 7 7 7 6 6 5 5 5 4 4 4 3 3 3 2 3 2 2 10 17 20 23 25 24 25 26 26 27 27 27 26 25 25 23 22 22 21 20 20 20 20 21 18 16 15 15 17 14 28 42 34 31 34 38 40 38 37 33 27 28 29 18 13 16 8 10 15 30 65 81 77 75 79 85
7 6 6 6 5 5 5 5 6 6 6 6 6 6 6 7 7 7 6 6 6 5 5 4 4 4 3 3 3 3 2 4 8 13 16 24 32 34 32 30 29 29 28 28 28 27 26 25 24 23 23 22 22 22 21 22 19 17 15 16 19 15 28 44 35 26 26 22 21 24 23 27 35 30 28 21 15 19 8 9 17 24 58 86 89 88 89 86
7 7 6 6 5 5 5 5 5 5 6 6 6 6 6 6 7 7 7 6 6 5 5 5 4 4 3 3 3 3 3 6 8 12 17 27 41 46 45 40 35 31 30 29 28 28 27 26 26 24 24 23 23 23 22 22 20 19 17 17 20 17 25 38 33 24 28 31 20 16 17 25 35 24 23 25 17 16 8 9 18 27 57 81 87 91 96 92
10 8 7 6 6 5 5 5 5 5 5 5 5 6 6 6 7 7 7 7 6 6 6 5 5 4 4 4 4 4 4 5 7 12 19 30 42 48 50 49 45 38 33 30 28 29 28 26 27 25 25 24 23 23 22 22 20 20 20 18 20 19 21 30 33 27 33 46 28 10 14 20 23 16 20 24 14 12 11 10 17 36 59 72 81 86 91 91
13 11 9 7 6 5 5 5 5 5 5 5 5 6 6 6 7 7 7 7 7 6 6 5 5 5 4 4 5 5 4 4 6 10 19 31 41 44 47 48 49 47 42 36 30 28 28 27 27 26 25 24 24 24 22 22 21 20 20 18 18 20 20 23 31 27 26 32 18 7 13 15 15 11 18 24 14 11 14 12 13 33 49 60 78 78 76 82
15 13 11 9 7 6 5 5 5 5 5 5 5 6 6 6 6 7 7 7 7 7 7 6 5 5 5 6 5 5 5 4 6 9 16 31 40 41 45 47 47 50 49 45 39 32 29 27 27 26 25 24 24 23 22 22 21 21 20 18 18 19 19 19 22 23 21 18 12 12 14 13 14 11 15 19 15 12 12 12 9 26 50 60 71 73 74 82
17 15 13 11 9 8 6 5 5 5 5 5 5 5 6 6 6 7 7 7 7 7 7 6 6 5 5 6 5 5 6 5 6 7 10 25 37 38 42 49 47 48 51 50 47 42 35 29 27 26 25 25 24 23 22 22 21 21 20 19 19 18 17 17 17 19 20 17 13 15 14 13 14 13 15 16 16 15 10 9 7 22 50 57 60 68 74 81
17 15 14 12 10 9 7 6 5 5 5 5 6 6 6 6 6 7 7 7 8 8 8 7 7 6 6 7 6 5 7 6 7 8 9 17 29 33 39 47 48 47 49 49 47 46 42 35 30 27 26 25 24 24 23 22 21 21 20 20 20 18 16 17 18 19 19 18 16 17 16 14 14 14 15 15 16 16 15 11 5 11 25 35 52 67 70 81
18 17 15 13 11 9 8 7 6 5 6 6 6 6 7 7 6 7 7 8 8 8 8 7 7 7 7 7 6 6 6 7 7 8 10 13 19 26 34 43 46 44 45 46 45 45 44 42 36 29 27 27 25 25 23 23 22 21 21 20 19 19 17 18 18 19 19 19 18 18 17 14 14 15 15 18 16 21 32 22 7 8 9 12 34 52 61 76
20 18 16 14 12 10 8 7 7 6 6 6 7 7 7 8 7 7 7 8 8 8 8 8 9 8 8 9 8 7 6 8 8 7 10 14 17 22 27 33 37 38 39 41 43 43 42 44 43 36 31 29 27 26 25 24 23 22 21 20 20 19 18 19 18 18 19 19 19 17 18 16 15 16 16 18 16 25 40 26 7 9 9 7 15 28 42 63
21 20 19 16 14 12 10 8 8 7 7 7 7 8 8 8 7 7 7 8 8 9 8 8 10 10 10 11 10 8 8 8 9 8 11 18 23 26 27 29 35 38 37 36 39 41 42 42 44 42 37 34 30 28 27 25 24 23 22 20 20 19 18 18 17 18 18 18 18 17 18 17 15 18 18 18 22 29 35 26 13 9 9 9 10 17 34 61
22 22 20 18 15 13 11 10 9 9 8 8 8 8 9 8 7 7 7 8 8 9 9 9 10 12 13 13 11 9 9 9 9 11 15 22 27 29 30 33 40 46 43 39 37 40 42 42 43 43 41 40 34 31 28 26 25 22 21 21 19 18 19 18 17 18 18 19 19 17 20 20 17 18 19 22 32 39 40 35 22 10 9 12 12 15 29 56
23 22 21 20 18 15 12 10 10 10 10 10 10 10 10 8 7 7 7 8 9 10 10 10 11 15 16 15 11 10 12 13 11 14 19 25 30 33 36 37 43 50 49 44 42 42 43 42 42 40 40 41 38 36 32 29 27 22 21 19 18 20 20 19 17 16 19 26 29 28 31 31 24 20 22 28 39 43 43 42 30 17 15 12 13 14 21 41
24 23 22 21 19 17 14 11 10 10 10 11 11 12 12 10 8 7 7 9 11 10 10 11 12 16 18 16 13 10 13 16 15 18 22 27 36 41 41 42 46 52 51 48 49 49 47 43 42 41 40 40 40 39 36 34 29 23 20 17 19 21 22 26 23 17 24 33 37 36 37 40 32 28 33 39 47 49 43 44 38 30 26 18 14 13 15 29
24 24 23 22 21 19 17 15 13 10 9 11 11 12 12 11 9 8 7 10 13 12 11 12 12 17 22 19 16 12 11 14 16 21 24 28 40 45 44 46 51 54 54 54 52 50 46 41 39 43 43 41 40 38 36 35 29 24 19 17 20 16 26 46 36 23 33 39 41 39 36 41 36 35 45 46 48 51 47 47 42 35 34 26 15 11 15 25
25 24 23 22 21 18 16 16 18 16 11 9 11 12 12 10 9 9 7 9 14 13 12 14 13 18 24 22 20 17 12 13 19 29 29 27 40 49 46 47 51 53 54 54 51 46 42 40 42 44 42 39 37 35 33 30 26 22 18 18 19 14 32 55 39 29 43 43 41 41 36 41 40 36 44 45 44 50 48 45 45 39 33 29 23 17 20 25
27 27 25 24 20 17 14 11 15 19 16 12 10 11 12 11 10 9 7 8 13 15 14 15 15 16 22 25 25 20 16 15 21 36 37 32 43 49 46 47 51 51 51 51 51 47 42 41 44 43 37 32 29 28 27 23 20 17 17 17 16 19 40 56 42 34 46 46 41 41 39 43 47 40 40 41 39 47 52 48 52 44 26 28 35 28 23 26
29 29 28 28 26 21 15 11 10 13 16 16 13 12 11 11 10 9 9 7 10 16 16 16 17 18 23 27 24 20 24 23 23 34 39 42 50 48 43 47 51 51 49 48 47 47 44 37 37 36 32 26 20 20 19 17 17 15 17 15 13 28 46 57 57 46 46 52 45 40 43 47 53 47 38 36 32 42 53 51 54 45 23 25 36 30 26 26
29 29 29 29 31 29 24 18 14 11 11 13 14 15 13 12 11 9 9 8 9 14 16 16 16 20 27 26 22 22 29 31 31 35 34 42 53 49 45 48 49 48 47 46 43 43 39 31 31 29 23 20 16 17 15 15 17 15 17 14 13 36 49 49 61 60 58 63 53 47 49 47 54 51 36 31 30 37 47 48 50 41 22 23 32 31 28 26
33 33 32 30 31 33 32 29 24 18 15 16 18 15 12 13 12 10 10 9 9 11 15 17 17 24 30 26 24 26 28 30 36 37 32 38 48 48 48 49 48 47 44 43 40 37 32 26 27 23 20 22 18 16 15 14 17 14 17 14 13 43 58 48 55 62 65 69 60 59 58 50 54 55 41 32 32 36 40 46 47 32 19 22 28 31 28 23
45 43 41 39 37 35 35 37 36 29 27 32 30 21 16 15 10 9 10 8 10 12 12 14 16 26 35 32 31 33 31 30 33 35 34 37 43 44 46 48 48 46 42 40 38 36 30 24 22 21 24 28 25 26 23 18 18 17 18 13 14 46 60 48 50 55 61 71 69 65 61 54 54 55 47 41 48 54 48 50 51 30 17 24 29 35 33 24
51 49 47 47 47 45 41 41 43 39 37 41 39 33 31 26 16 13 10 8 18 23 21 23 23 23 27 27 32 41 43 37 33 35 36 37 40 41 43 46 47 43 36 35 36 34 32 27 24 22 24 31 36 39 30 19 15 14 16 12 14 44 58 53 60 62 62 70 69 62 57 50 49 53 50 46 60 70 57 58 62 37 20 28 35 44 44 31
48 47 46 46 48 50 48 48 48 43 43 45 43 42 41 37 30 24 16 14 28 35 35 42 43 40 37 30 32 42 46 42 40 40 35 35 39 39 40 42 43 40 34 34 34 32 36 38 37 30 23 29 38 35 22 14 12 10 14 14 16 32 40 47 68 74 70 69 66 62 58 51 47 51 52 47 56 65 62 66 63 40 31 40 46 49 43 30
48 46 46 45 46 48 49 51 51 46 46 48 46 45 43 42 39 33 26 24 30 34 32 36 44 50 52 47 48 51 47 43 45 42 34 35 40 40 40 40 40 38 33 32 31 28 35 44 49 43 27 25 30 25 15 11 12 11 10 16 26 31 27 38 67 81 80 82 79 67 64 64 56 54 56 53 57 64 72 80 70 52 49 52 53 50 40 35
48 47 46 45 45 46 45 47 48 47 47 46 46 47 44 43 39 34 32 31 34 37 33 32 37 42 45 48 54 58 54 47 46 44 34 33 39 40 39 40 41 40 35 33 30 27 30 33 41 43 32 27 26 23 19 12 12 12 10 30 51 48 35 35 57 79 77 78 78 69 73 76 64 63 63 59 66 73 78 81 77 72 65 56 56 56 51 55
46 44 43 41 40 40 39 37 37 38 40 40 42 43 42 42 38 35 36 36 43 52 49 48 50 51 50 47 47 50 49 47 48 46 37 33 38 41 41 40 37 37 34 31 31 33 32 28 33 37 32 31 28 23 17 14 19 18 19 50 75 74 66 47 50 71 69 66 73 70 75 75 65 68 66 63 75 81 77 70 70 78 70 56 60 63 65 71
38 35 32 30 29 28 26 24 23 24 26 27 30 32 35 37 34 35 36 38 51 62 60 62 73 81 76 63 58 55 49 49 50 46 42 43 44 42 42 43 40 36 31 28 31 34 35 34 34 32 28 31 31 23 17 24 45 50 43 53 65 79 90 70 59 66 60 64 68 55 58 68 69 66 58 68 83 78 76 71 67 77 72 63 68 70 74 73
23 20 17 16 14 13 12 11 10 11 11 12 14 17 21 24 22 23 25 30 46 56 58 67 82 95 96 88 84 79 70 67 63 52 50 60 63 51 44 44 43 41 34 30 32 30 30 36 37 30 23 27 30 25 21 36 69 82 69 59 60 74 85 72 68 70 61 62 58 47 57 72 78 71 58 72 82 72 80 84 74 77 79 80 84 78 79 69
9 8 6 6 5 5 5 5 5 5 5 5 5 6 9 10 9 9 12 18 30 46 60 72 82 92 98 97 95 93 88 84 81 73 64 66 72 64 54 48 44 43 39 35 35 34 30 32 39 40 33 28 28 29 27 35 69 93 79 60 57 69 79 74 72 75 72 68 61 64 79 78 80 84 71 71 75 69 79 87 81 81 82 88 85 76 77 67
5 4 4 5 5 5 5 5 5 4 5 4 3 4 4 4 4 4 7 8 16 39 58 66 77 87 89 92 92 92 92 88 89 93 83 73 76 75 68 60 48 42 42 40 43 50 52 48 47 51 51 39 28 30 32 35 60 80 65 46 43 55 78 87 79 73 74 76 72 77 87 80 77 84 73 63 66 67 72 79 84 81 77 81 78 67 65 55
6 5 6 6 6 6 6 6 6 6 6 5 5 6 4 5 5 4 5 4 9 28 46 61 81 92 91 95 94 90 94 94 90 97 94 85 88 90 84 78 65 49 44 45 50 60 68 68 63 63 70 70 53 39 37 40 53 65 61 56 54 57 72 88 92 84 75 80 85 83 85 84 81 82 73 58 55 68 80 85 87 79 69 70 70 70 69 57
8 8 7 8 8 8 7 6 7 6 6 6 6 6 6 6 6 4 5 5 4 12 31 60 83 89 90 97 96 91 96 98 91 93 93 88 89 91 87 88 84 69 59 59 65 72 73 65 65 69 77 90 87 60 40 36 41 58 79 83 75 74 79 82 90 93 85 85 91 86 84 85 81 78 75 65 59 70 82 81 75 70 68 66 62 68 76 66
9 8 8 8 8 8 8 8 8 7 6 7 6 6 6 6 6 7 5 5 6 6 24 60 85 89 86 88 95 99 102 102 97 95 95 91 89 86 85 89 89 80 75 72 71 81 85 67 59 69 78 91 96 75 57 55 49 57 86 95 84 85 91 86 81 88 92 92 90 85 82 77 70 69 76 77 72 71 74 71 61 58 65 66 57 56 63 61
8 8 9 8 8 10 11 11 9 8 7 7 7 6 6 6 6 7 5 5 6 3 21 62 84 82 83 89 95 97 99 101 96 91 92 94 92 90 91 95 91 86 89 83 66 69 85 77 63 69 79 90 96 85 80 86 77 71 86 97 92 88 90 90 84 84 91 95 93 89 83 73 67 72 77 76 73 74 79 81 74 66 65 62 53 48 47 52
7 7 10 11 11 11 11 10 9 8 7 7 8 7 5 6 5 6 7 7 6 6 29 71 84 68 72 94 96 86 92 101 95 88 87 87 88 91 93 94 94 97 99 93 76 65 68 68 63 69 79 88 95 95 95 94 84 78 82 89 96 96 90 90 87 85 92 96 94 89 84 77 75 80 78 67 62 68 77 81 78 70 64 57 48 44 42 46
8 8 9 10 10 10 10 11 10 8 8 8 8 9 11 12 8 8 8 4 10 20 31 56 72 62 66 92 97 87 93 101 96 90 86 82 86 88 87 89 95 97 93 93 91 78 66 59 56 64 77 87 91 91 95 92 78 78 85 83 88 94 90 88 88 88 93 96 89 83 81 80 80 81 77 68 65 69 73 73 65 55 53 53 46 43 44 47
9 9 10 9 9 9 9 9 8 8 9 10 10 16 24 26 24 29 28 16 19 31 27 27 40 44 53 81 97 93 92 94 96 94 86 81 85 86 84 88 95 95 88 93 96 84 76 72 64 62 71 82 89 88 91 92 81 82 88 78 76 87 85 82 89 88 90 96 91 84 84 78 72 74 75 71 70 69 66 63 57 54 57 63 60 53 53 56
9 9 10 10 10 9 7 8 10 12 16 19 24 35 49 56 54 53 53 42 28 22 15 14 20 24 33 59 85 95 95 95 98 97 91 87 87 92 92 87 89 95 92 94 97 88 84 84 75 68 69 78 91 95 94 96 94 95 88 65 62 78 77 76 87 85 83 93 92 87 88 74 60 63 69 67 67 67 64 61 57 58 62 68 70 62 57 59
11 10 10 11 9 8 9 14 19 22 25 26 29 38 55 73 78 69 67 72 66 47 29 19 16 16 19 34 59 82 93 99 100 95 93 92 89 94 97 90 89 94 92 92 95 93 90 88 79 71 68 70 82 91 93 95 96 97 88 69 68 85 85 79 83 80 78 84 80 73 76 68 56 58 61 62 66 69 72 73 72 72 73 75 72 65 60 59
13 12 12 11 8 8 13 21 26 32 39 38 34 34 37 52 75 84 83 89 94 85 70 51 30 19 20 25 37 55 72 90 100 99 93 88 86 90 91 88 89 92 95 95 93 93 96 95 90 83 74 68 69 78 88 94 96 95 88 78 80 93 94 86 85 85 82 76 62 51 51 49 47 51 54 58 65 66 69 76 82 87 89 85 78 73 71 68
14 14 13 11 8 9 15 25 31 37 45 45 41 42 38 34 50 71 83 92 98 93 87 76 52 36 38 41 40 48 65 84 93 94 86 76 81 90 88 86 88 84 87 91 89 93 99 96 95 94 88 81 76 77 82 84 89 96 91 83 82 90 97 95 90 88 81 71 61 54 50 47 45 49 55 63 70 71 75 81 82 81 84 86 85 85 81 77
15 15 14 11 9 8 14 26 34 37 44 44 40 46 50 40 36 49 70 89 99 95 93 89 70 51 46 43 41 44 57 76 80 72 67 66 78 93 91 93 98 91 87 90 89 94 98 93 95 98 96 96 93 91 91 87 87 92 92 89 87 89 98 100 92 87 84 79 75 69 65 65 62 60 63 71 76 75 76 79 81 78 77 80 81 79 75 74
16 16 14 13 10 7 11 21 32 37 41 44 44 50 60 54 40 41 56 76 88 87 89 89 77 62 47 39 49 57 57 67 71 60 57 64 76 89 91 92 98 95 89 89 87 90 95 94 96 97 97 99 97 92 94 96 96 95 93 96 99 97 99 101 97 95 94 90 85 79 76 77 76 73 74 79 82 78 67 66 76 82 79 76 75 71 67 68
18 17 16 15 11 10 8 15 34 49 49 47 50 56 66 68 56 46 50 66 83 86 80 74 69 68 58 41 51 75 80 78 75 63 57 58 65 78 85 83 84 83 85 91 91 91 94 94 92 93 96 99 95 88 86 90 94 95 92 94 97 98 101 103 100 97 95 94 93 89 84 82 81 83 86 87 85 80 74 73 80 85 84 80 77 76 74 75
19 19 19 16 13 12 8 9 28 44 45 49 60 62 64 69 67 64 67 72 79 78 69 63 63 72 78 60 48 65 84 86 82 71 57 51 60 77 84 80 77 78 84 95 99 95 95 94 91 89 92 94 92 87 83 81 83 86 84 81 80 82 87 95 99 97 93 93 95 94 90 86 85 91 97 95 85 78 78 82 86 89 90 87 85 87 89 89
21 21 21 19 16 15 12 8 12 19 28 47 65 65 66 68 56 50 61 72 76 72 60 55 58 68 86 86 67 62 75 83 86 83 68 55 60 75 81 77 77 82 86 90 94 94 96 100 96 89 88 90 88 85 85 85 86 84 80 76 75 73 72 79 91 96 93 91 93 95 95 93 93 95 96 92 84 78 79 86 94 96 93 88 84 85 91 94
Wind_Speed
28 28 28 29 29 29 29 29 29 30 30 30 30 30 30 30 30 31 30 30 30 30 30 31 31 32 32 33 33 33 33 33 32 31 29 28 28 27 26 25 23 21 20 20 20 21 23 25 27 28 29 28 28 27 27 27 27 28 29 27 25 21 16 16 17 17 15 4 15 22 26 29 33 38 39 36 27 24 27 27 29 29 25 21 19 21 22 24
28 28 28 28 29 29 29 29 29 29 29 29 30 30 30 30 30 30 30 30 30 30 30 30 30 31 31 31 32 32 32 31 30 28 27 26 26 25 23 23 21 19 19 19 19 21 22 25 27 28 28 28 27 27 27 27 27 28 27 26 22 19 15 18 22 18 15 9 19 25 30 29 32 37 38 36 30 25 25 24 27 27 20 19 22 22 22 23
29 28 28 28 29 29 29 29 29 29 29 29 29 29 29 29 29 29 29 29 29 29 29 29 30 30 30 30 31 31 31 31 28 25 26 26 24 23 21 20 19 18 18 18 19 20 22 25 26 27 27 28 27 27 27 27 28 27 27 25 19 17 19 24 25 19 14 12 21 28 34 33 35 37 35 36 34 28 22 20 25 25 18 18 22 22 22 23
29 29 29 29 29 29 29 29 29 29 29 29 29 29 29 29 29 28 28 28 28 28 28 29 29 29 29 29 30 30 30 29 25 23 25 25 23 22 20 19 18 17 17 17 18 20 22 24 25 27 27 27 27 27 28 28 28 27 27 24 17 17 25 29 23 20 15 14 24 30 36 40 40 36 33 34 33 28 25 22 23 24 21 20 22 22 22 22
29 29 29 29 29 29 29 29 29 29 29 29 29 29 29 29 28 28 28 28 28 28 28 28 28 28 28 28 28 29 29 27 24 21 23 23 22 20 19 17 17 16 16 17 18 20 22 24 25 26 27 27 27 27 27 27 27 27 27 23 19 20 28 31 24 25 23 20 28 33 37 42 42 38 32 27 23 23 25 25 23 21 21 22 24 24 22 21
30 30 29 29 30 30 30 30 30 30 30 30 29 29 29 28 28 27 27 27 27 27 27 28 28 28 28 27 27 28 28 27 23 19 19 21 20 18 17 17 16 16 16 17 19 21 22 24 25 26 26 26 27 27 26 26 27 27 26 23 21 22 30 35 28 27 28 26 31 37 40 41 40 38 32 22 19 22 25 27 25 21 20 22 24 25 24 22
30 30 30 30 30 30 30 30 30 30 30 30 29 29 29 28 28 27 27 27 27 27 27 27 27 27 27 27 27 27 27 27 24 19 19 21 19 17 15 15 16 16 16 17 19 20 22 24 24 25 26 26 26 26 26 27 28 28 27 24 22 23 31 37 32 29 30 32 36 40 42 40 38 37 32 24 23 24 25 28 28 22 20 21 22 23 23 23
30 30 31 31 31 31 31 31 31 31 30 30 29 29 28 28 27 27 27 26 26 26 26 26 26 26 26 26 26 26 26 27 24 21 21 20 18 16 15 15 15 16 17 18 19 20 22 23 24 25 25 26 26 26 27 28 29 28 27 24 22 25 32 38 36 33 32 34 37 37 33 32 36 36 30 29 29 26 26 28 27 23 21 22 21 21 21 22
30 31 31 31 32 32 32 31 31 31 31 30 30 29 28 28 27 27 26 26 26 26 25 25 25 25 25 25 25 25 25 25 25 23 21 19 18 17 16 16 15 16 17 18 20 21 22 22 24 25 25 26 27 28 28 29 29 28 26 23 24 26 32 38 38 35 30 31 35 33 25 22 30 29 26 32 33 28 25 25 25 24 23 21 20 19 20 21
30 31 31 32 32 32 32 32 32 31 31 30 30 29 29 28 27 27 26 26 25 25 25 24 24 24 24 25 24 24 25 25 25 23 21 20 20 20 19 18 17 17 17 19 20 21 22 23 24 25 26 26 27 28 29 29 28 27 27 26 26 26 30 36 38 36 30 31 34 26 19 19 24 22 21 29 30 26 24 23 24 23 23 22 20 20 20 19
30 31 31 32 32 33 33 33 32 32 31 31 30 30 29 28 27 27 26 26 25 24 24 24 24 24 24 23 23 25 25 25 24 22 22 22 22 21 21 21 20 19 18 19 19 21 22 23 24 25 26 26 27 27 28 28 28 28 30 29 27 28 31 34 38 40 37 37 33 20 17 20 23 23 23 27 27 24 24 24 23 23 24 23 22 21 20 18
30 31 31 32 33 33 34 34 33 33 32 31 31 30 29 28 28 27 26 26 25 24 23 23 23 23 23 22 23 25 25 24 22 22 22 23 24 23 23 23 23 22 21 20 20 20 22 23 25 25 26 26 27 28 28 28 28 29 30 28 26 29 33 35 37 39 39 39 33 24 23 23 23 24 24 25 24 23 27 27 23 24 25 25 24 22 19 18
30 31 32 32 33 34 34 34 34 33 33 32 31 30 30 29 28 27 27 25 25 24 23 23 23 23 22 22 24 24 24 23 22 22 21 23 25 24 24 25 24 24 24 23 23 22 22 23 25 25 25 26 26 28 28 29 30 29 30 28 26 30 32 32 33 34 35 37 30 26 27 23 22 23 21 22 22 24 30 28 23 23 24 25 25 23 21 19
30 31 32 33 33 34 34 35 34 34 33 32 32 31 30 29 29 28 27 26 25 24 23 23 22 22 21 21 24 23 22 23 23 23 21 23 26 25 25 25 25 26 25 25 25 24 23 23 24 25 25 25 26 26 27 28 29 28 29 28 28 30 29 27 28 29 32 33 27 25 27 23 20 20 19 19 21 23 28 30 27 24 24 25 25 24 22 21
30 31 32 33 33 34 35 35 35 34 34 33 32 31 30 30 29 28 27 26 25 24 23 23 22 22 21 21 23 22 22 23 23 22 22 23 25 25 26 26 25 26 27 26 26 26 26 24 24 25 24 25 26 26 27 28 28 28 29 28 27 28 26 24 25 27 29 30 28 25 27 25 19 17 18 18 20 20 23 29 27 22 24 25 25 24 23 22
30 31 32 33 33 34 35 35 35 35 34 34 33 32 31 30 30 29 28 26 25 24 23 23 22 21 20 20 20 22 21 22 23 21 21 23 23 24 24 24 24 25 26 27 26 26 27 27 26 25 25 26 26 26 28 29 28 28 27 26 26 27 26 24 24 25 26 28 28 26 27 27 20 16 17 18 19 21 24 27 25 22 24 24 23 24 23 22
30 30 31 32 33 34 34 35 35 35 35 34 33 33 31 31 31 30 28 27 25 24 23 23 21 20 20 18 18 20 20 20 21 20 20 23 23 23 22 22 23 24 25 27 27 27 27 28 29 28 27 27 26 26 28 29 27 26 26 25 25 25 25 25 24 23 25 27 28 27 27 28 22 15 16 19 18 20 24 23 23 25 26 24 22 22 22 21
30 30 31 32 32 33 34 35 35 36 36 34 33 33 32 32 31 30 29 27 25 23 24 23 20 20 20 18 18 19 19 19 18 19 21 23 23 23 22 21 22 23 24 25 27 27 27 28 30 30 30 29 27 27 28 26 25 25 25 24 23 22 23 23 23 22 22 24 26 25 25 27 23 16 17 18 16 17 23 24 23 27 28 26 24 23 22 20
30 30 31 31 32 33 33 34 35 35 36 35 34 32 32 32 31 31 30 27 25 23 24 23 20 19 20 19 19 18 18 17 16 19 22 22 23 23 22 21 21 23 24 24 25 27 28 28 29 30 30 29 28 28 27 25 25 25 24 23 22 21 21 20 19 18 18 21 22 19 20 22 16 15 18 18 16 18 26 30 26 25 29 29 27 25 22 19
30 30 31 31 32 32 33 33 34 34 35 35 35 33 33 33 32 31 30 27 25 24 24 23 20 19 20 19 18 17 18 17 17 20 22 21 23 23 22 21 21 23 23 23 24 26 28 28 28 26 26 27 28 29 28 27 27 25 24 24 24 23 21 17 14 13 15 18 19 17 20 22 11 11 19 18 14 19 29 34 30 27 30 32 29 26 22 17
29 30 30 31 31 32 32 32 33 33 34 35 35 34 33 33 33 32 30 27 25 25 24 22 20 17 19 20 17 17 18 17 17 19 21 22 22 22 22 21 22 22 21 23 24 26 27 26 24 23 24 26 27 28 28 28 28 26 26 27 29 27 23 17 12 15 16 15 17 19 23 26 17 11 21 21 14 14 24 32 30 26 28 29 26 23 19 15
28 29 29 30 30 31 30 30 31 32 32 33 34 34 34 33 33 32 32 28 25 25 24 22 21 18 19 21 18 17 17 15 16 18 21 22 21 22 22 22 22 21 21 23 23 24 24 23 22 22 23 25 25 26 27 28 27 26 27 29 30 27 20 15 13 21 16 13 17 21 24 27 24 16 23 26 20 16 22 27 27 25 25 26 24 20 17 15
27 27 28 28 29 28 28 28 28 30 30 31 32 33 33 33 33 33 32 30 24 25 25 22 22 20 19 19 19 19 17 15 15 18 21 21 20 23 23 21 20 20 21 22 22 22 21 20 22 23 23 23 24 25 25 25 25 25 28 28 26 22 16 10 12 23 17 15 18 22 25 26 26 21 25 31 26 22 25 26 28 30 27 27 30 26 21 18
26 26 26 27 27 26 25 25 26 27 28 29 30 31 31 31 32 32 32 31 24 22 26 23 20 19 18 20 21 19 16 15 15 18 21 19 20 23 23 20 20 20 20 21 21 20 18 19 21 22 21 22 22 23 24 24 26 27 28 26 21 19 19 13 12 19 17 17 21 26 27 26 23 21 25 32 29 26 25 24 27 31 28 29 33 30 26 24
25 26 26 26 26 25 23 23 24 25 25 26 26 27 27 27 29 31 31 32 25 20 25 25 18 17 18 21 22 18 16 16 15 19 21 19 21 23 21 20 20 20 20 20 20 19 18 19 20 20 20 21 21 21 22 24 25 26 25 23 21 21 22 19 19 20 14 13 21 27 30 29 26 23 24 29 30 28 26 25 28 31 30 29 30 29 28 28
26 27 27 26 26 25 23 22 23 23 23 22 22 23 25 24 26 29 29 31 25 20 24 25 18 16 19 21 21 19 18 16 17 21 20 18 21 22 21 20 19 20 20 20 20 19 18 19 19 19 18 18 19 21 22 23 25 25 21 19 21 23 23 23 25 23 17 17 23 27 29 29 29 28 25 25 27 27 25 27 32 33 30 27 26 26 27 27
25 27 27 27 26 26 25 23 24 24 22 20 20 22 22 21 23 25 27 28 25 21 22 22 17 16 18 18 16 16 17 16 19 21 18 16 19 20 20 20 19 18 19 20 21 19 17 18 18 18 17 17 18 19 19 18 20 21 18 18 23 27 24 22 25 27 22 19 24 29 32 32 32 33 30 23 21 23 25 28 33 35 30 28 27 27 30 30
26 27 27 26 25 26 26 25 24 25 24 21 22 23 21 20 21 22 24 25 21 20 19 17 16 17 20 20 15 13 16 17 17 19 18 17 18 20 20 19 18 17 18 20 20 18 16 16 16 16 18 18 17 15 12 12 13 13 16 20 26 30 27 23 23 25 24 21 24 30 34 35 33 34 34 30 27 25 26 29 32 35 33 34 36 35 34 32
27 27 28 27 26 26 26 25 25 26 25 24 24 24 22 21 21 21 23 22 17 16 16 16 16 17 21 23 18 15 16 15 15 18 20 18 18 20 19 18 18 17 19 20 19 18 16 14 15 18 20 18 16 12 10 12 11 12 18 19 25 31 31 28 23 22 23 23 25 29 31 31 30 27 23 27 33 31 28 32 34 35 36 37 38 37 34 32
27 27 27 27 26 25 25 24 25 26 25 25 26 25 25 24 23 24 24 21 15 14 17 18 16 17 20 21 17 16 17 16 15 19 20 17 18 20 19 19 20 19 20 21 20 19 17 16 17 19 21 19 16 14 12 13 13 15 19 18 22 27 30 32 28 23 23 22 23 26 26 26 26 22 17 21 29 28 25 30 33 33 34 33 32 31 30 30
25 25 25 26 25 24 23 23 23 24 24 25 25 25 26 25 26 27 23 19 15 14 18 18 17 19 20 19 17 16 17 17 17 20 21 17 16 18 18 19 20 20 20 20 20 20 19 19 18 19 21 19 18 18 15 14 15 16 17 17 19 20 25 32 33 29 29 28 24 22 20 22 21 18 19 24 25 23 25 29 31 34 34 30 29 29 27 28
22 22 22 23 23 22 21 20 21 22 22 23 24 24 25 26 28 27 22 19 16 14 16 15 14 18 19 19 19 17 17 17 18 21 23 19 16 16 16 17 17 18 18 18 19 19 18 19 19 19 19 15 16 19 18 16 14 14 17 21 22 20 21 26 32 36 36 30 25 20 16 19 18 14 20 27 26 24 27 31 33 35 34 29 29 28 26 26
20 20 21 21 22 22 21 19 20 22 21 22 23 23 25 26 26 22 20 19 17 16 17 13 10 13 15 18 19 17 16 17 18 22 23 21 18 17 16 16 16 16 15 17 19 18 16 17 20 21 17 12 13 16 18 16 12 12 18 23 24 24 23 21 25 33 35 31 28 22 16 18 19 19 22 26 29 28 28 32 31 29 27 26 27 28 26 25
19 19 20 20 21 21 20 19 19 21 22 22 22 23 25 24 21 18 17 16 15 17 19 16 15 14 12 14 15 15 15 16 18 22 22 21 19 18 17 17 18 17 15 18 20 20 19 19 21 22 18 14 12 13 14 15 13 13 17 22 23 24 25 24 22 24 27 28 28 23 19 20 22 24 23 23 28 30 29 28 27 25 22 21 24 26 26 26
17 17 18 18 19 19 19 19 19 20 21 21 22 23 23 21 18 17 16 14 15 17 18 20 20 18 15 15 16 16 16 16 18 20 21 22 20 18 17 16 18 18 16 18 20 20 21 21 20 19 19 17 14 12 13 16 17 15 15 21 25 25 23 23 24 24 23 23 23 21 22 24 24 25 24 22 26 29 28 27 26 27 23 20 22 23 22 23
16 16 16 16 17 18 18 18 18 19 20 21 22 21 20 18 17 17 16 16 17 18 21 23 21 18 17 17 18 18 18 20 21 21 21 22 21 19 18 17 18 19 17 18 19 19 20 19 17 16 17 18 16 14 15 18 18 16 15 17 20 23 22 22 22 25 26 23 21 22 23 26 25 25 25 25 27 28 29 29 29 29 26 23 21 20 19 20
15 16 16 16 17 18 18 18 18 19 20 21 21 19 18 17 17 17 17 18 19 22 26 25 20 18 18 18 19 19 19 21 22 22 22 23 23 21 19 18 18 18 17 17 19 19 19 19 17 16 16 15 15 15 19 20 19 17 15 12 12 16 21 22 20 23 28 25 20 21 23 25 25 25 26 26 27 28 28 27 28 28 28 27 24 20 18 19
14 15 16 16 17 17 18 19 19 20 21 21 21 20 20 19 18 18 18 19 21 24 27 26 22 22 23 23 21 17 17 19 20 21 23 25 27 25 22 21 20 19 18 18 20 20 22 23 20 18 18 17 14 15 20 23 21 18 16 14 14 17 20 21 20 21 24 23 20 21 24 25 26 27 28 26 26 28 28 26 26 26 27 27 26 25 23 21
13 14 15 15 15 16 17 18 18 19 20 20 21 21 21 21 20 20 20 20 21 24 27 27 24 23 26 28 23 15 14 19 21 23 24 26 26 25 24 24 24 23 21 21 23 23 25 27 23 21 22 20 17 16 18 19 19 19 19 16 18 21 23 23 23 21 21 20 21 23 24 25 26 27 28 25 24 25 26 25 25 26 26 25 24 25 25 23
12 13 14 14 15 15 16 17 18 18 19 20 20 20 20 21 21 21 21 22 23 24 26 27 26 26 28 30 27 22 17 14 18 23 26 28 28 26 27 28 26 25 25 26 27 26 26 29 27 23 24 24 21 19 19 18 17 19 20 18 17 22 27 27 25 23 21 21 22 23 24 25 26 26 27 24 20 18 19 20 22 23 25 25 23 24 26 24
10 12 13 14 14 15 16 18 19 20 20 20 21 21 22 23 23 22 23 24 25 24 25 29 31 30 29 31 31 28 23 14 15 23 27 30 30 28 29 30 29 29 28 27 28 28 29 31 29 25 25 26 25 22 22 24 24 22 22 22 21 21 25 29 30 27 24 23 23 21 23 26 24 23 25 25 21 19 18 19 19 20 22 24 24 24 26 26
10 12 13 14 15 16 17 18 20 21 21 22 22 22 23 24 24 23 24 25 24 25 30 34 36 34 31 35 35 30 27 23 20 24 26 27 27 28 30 31 31 33 33 30 29 29 30 31 30 28 28 29 28 25 26 28 28 27 27 25 22 21 24 27 29 29 26 26 25 23 24 26 25 23 23 24 23 22 22 21 20 21 22 23 23 23 23 25
10 11 13 15 16 17 18 20 21 23 23 23 23 22 23 23 24 23 23 25 26 30 36 37 37 37 34 36 38 33 30 29 26 27 27 26 24 25 28 30 30 32 35 33 32 32 32 31 30 30 31 31 30 28 29 30 29 30 30 27 23 22 26 25 24 26 26 25 27 26 26 26 26 25 25 24 25 25 25 24 22 22 23 23 24 23 22 23
11 12 13 15 17 20 21 20 19 19 19 20 21 22 24 24 24 23 24 27 29 33 37 37 38 39 36 36 38 35 32 28 25 27 29 26 24 23 24 27 29 31 33 34 35 35 35 34 31 30 33 33 31 29 29 28 29 31 32 30 28 27 29 27 25 26 25 24 25 25 25 26 27 28 27 27 27 27 25 24 23 23 23 23 22 21 21 22
12 14 15 15 18 21 20 16 13 12 14 16 18 21 25 27 26 26 25 25 26 28 31 34 38 39 37 36 38 38 36 30 22 24 30 29 26 23 22 26 30 31 32 37 41 40 37 36 34 32 34 36 35 33 31 29 30 32 33 33 32 31 31 29 28 28 28 28 28 26 25 26 27 28 29 29 29 27 25 24 23 21 22 22 20 19 21 22
12 15 16 17 19 19 14 10 11 13 14 16 17 19 23 27 28 27 26 24 24 24 25 28 33 37 36 35 36 38 39 36 27 24 27 29 27 24 22 24 28 29 28 32 39 41 40 38 37 35 34 35 36 37 35 32 30 30 31 33 34 33 31 30 29 29 31 33 34 33 31 30 29 29 31 31 31 29 27 26 24 20 19 20 21 21 22 23
12 14 16 18 20 17 10 9 12 15 17 18 18 18 18 22 26 27 26 24 24 24 24 26 28 32 34 35 35 35 35 37 35 31 29 30 27 24 22 19 21 25 26 26 30 34 36 35 35 37 35 33 33 35 37 38 36 34 33 33 34 34 33 32 31 29 30 33 33 32 32 33 33 32 32 33 32 30 27 26 25 22 20 19 20 21 21 22
12 13 14 17 19 16 11 11 13 16 18 18 17 16 14 14 18 23 25 24 23 22 23 25 26 28 31 32 33 34 33 34 37 37 36 33 26 21 21 18 15 17 22 24 25 27 30 31 33 35 33 30 30 32 34 37 39 40 41 39 37 35 35 35 34 32 31 31 31 32 32 31 33 34 34 35 34 31 29 27 25 23 21 19 19 20 20 20
12 13 14 15 17 16 12 12 14 15 15 16 16 14 12 10 10 17 22 22 22 22 22 23 23 25 29 29 29 30 32 33 34 36 38 37 29 22 21 21 17 14 16 20 24 26 26 26 29 32 30 27 27 29 30 31 31 33 37 39 38 37 37 37 37 35 33 32 32 34 33 32 33 34 35 35 35 33 33 33 29 26 25 23 21 21 22 22
12 13 14 15 16 16 13 10 11 11 12 14 15 13 10 8 7 12 17 19 19 20 22 23 22 23 26 29 29 28 28 29 30 32 35 37 35 29 25 25 24 20 17 16 19 22 22 20 22 27 29 27 27 29 30 30 30 30 32 33 32 33 35 37 39 39 37 35 35 34 33 33 33 34 35 36 37 36 33 31 28 26 25 25 23 22 22 23
11 13 14 15 16 16 15 10 9 10 11 12 13 12 10 8 8 10 14 17 17 18 20 22 22 22 22 25 28 28 28 27 26 28 31 34 35 32 29 28 27 24 21 17 14 16 19 20 20 22 25 26 27 29 29 29 30 32 34 34 32 32 32 32 35 37 38 37 36 33 33 33 33 33 35 36 36 36 35 31 28 25 23 23 21 19 19 21
11 12 13 14 15 15 15 13 10 10 11 10 10 11 10 9 9 10 13 16 17 18 19 21 22 22 20 21 25 28 29 28 25 24 27 31 33 32 31 30 28 25 23 21 18 16 16 17 19 21 23 23 24 26 27 27 27 29 31 33 34 34 35 34 34 34 34 35 35 34 32 29 27 29 33 35 35 34 34 34 31 29 27 25 22 19 18 19
Wind_Direction
263 263 263 263 263 264 265 265 266 268 269 270 272 273 274 275 276 277 277 277 278 278 278 278 279 279 278 278 278 278 278 278 278 278 278 278 279 278 277 277 274 270 264 258 251 243 240 236 236 236 237 237 237 238 237 237 236 239 239 239 238 231 229 213 191 163 145 250 257 228 235 242 252 256 254 259 263 261 257 252 251 251 249 247 243 239 237 240
264 263 264 264 264 265 265 266 267 268 269 271 272 273 275 276 276 277 277 277 278 278 278 278 278 278 278 278 277 277 277 277 277 277 277 278 277 277 277 276 273 268 262 255 247 241 237 234 234 234 235 234 233 233 233 233 234 237 238 237 236 223 206 189 179 155 147 227 252 239 241 241 245 254 257 264 268 264 259 249 247 251 249 245 245 242 239 238
264 264 264 264 265 265 266 266 267 268 269 271 272 273 275 275 276 276 277 277 278 278 278 278 278 278 278 278 277 277 277 277 276 275 277 278 277 277 275 273 270 265 258 251 243 238 235 233 234 234 234 233 231 230 230 231 232 234 236 234 228 214 187 175 177 163 157 222 242 242 248 248 244 246 250 258 260 257 257 244 238 246 242 237 244 243 238 236
264 264 265 265 265 266 266 266 267 268 269 270 272 273 274 275 276 276 277 277 277 278 278 278 278 278 277 277 277 276 277 276 274 274 278 278 277 275 273 270 266 260 254 247 241 237 234 233 232 233 232 231 229 229 230 229 232 232 235 233 217 203 184 172 173 162 166 233 239 235 246 251 248 246 247 249 252 250 249 243 235 242 239 234 242 243 239 237
265 265 265 265 265 266 266 266 266 267 268 269 271 272 273 274 275 276 276 277 277 277 277 278 278 278 277 277 277 277 277 274 271 272 275 274 272 271 268 265 260 255 250 243 240 236 234 233 232 231 230 230 228 228 230 229 232 231 232 230 210 198 185 178 177 171 181 223 235 230 236 245 246 247 249 252 254 244 241 244 241 244 247 243 242 243 241 238
265 265 265 265 265 265 265 266 266 266 267 268 269 271 272 274 275 275 276 276 276 277 277 277 277 277 277 277 277 276 275 271 266 264 266 268 267 266 264 259 254 250 247 241 238 235 234 232 230 231 229 228 228 227 227 227 230 229 229 225 211 196 186 187 190 188 196 217 234 233 228 235 244 246 246 251 255 242 235 240 239 236 241 244 243 242 240 237
265 265 265 265 265 265 265 265 265 266 266 267 268 269 271 272 274 274 275 276 276 276 276 276 277 277 277 277 277 276 274 270 264 256 255 259 262 264 260 254 249 245 243 240 238 235 233 232 229 228 228 227 228 227 225 226 229 228 225 220 211 198 189 191 197 202 211 219 227 232 228 230 242 245 243 250 256 248 237 237 238 232 232 238 239 238 237 237
267 266 266 265 264 264 264 264 264 264 265 265 266 268 269 270 272 273 274 274 275 275 275 276 277 277 277 277 276 275 273 268 264 258 251 251 255 258 255 249 246 243 241 239 237 235 233 231 230 228 227 227 227 228 226 226 228 228 225 217 209 201 194 195 203 211 223 232 231 234 237 234 240 245 244 250 254 249 237 234 237 231 230 235 233 232 234 234
270 269 268 266 265 263 262 262 262 263 263 264 264 265 266 268 269 270 271 272 273 274 275 275 276 276 277 276 275 275 272 267 263 258 251 244 243 245 247 246 244 242 240 239 237 236 234 232 231 229 227 226 226 227 227 227 228 229 227 219 211 206 201 202 210 216 226 246 247 241 241 236 238 242 245 248 248 246 238 233 235 229 226 231 230 229 228 228
272 271 270 268 266 265 263 262 261 261 261 262 262 263 264 265 266 268 269 270 271 272 274 274 275 275 276 276 276 274 270 265 259 254 248 242 237 237 241 241 241 242 240 239 238 236 236 234 232 230 228 227 227 228 229 229 229 229 228 220 212 209 208 209 215 220 222 240 248 240 230 230 234 233 237 244 244 245 246 240 235 227 224 229 232 229 223 223
272 271 271 269 268 266 264 263 261 261 260 260 260 260 261 262 263 265 266 268 269 271 272 273 274 274 275 276 275 273 270 267 261 251 243 240 238 236 239 239 238 240 239 240 239 236 236 235 234 232 230 230 230 231 232 233 233 232 230 223 212 209 211 211 216 223 225 234 243 246 237 229 227 222 225 237 241 245 248 245 236 229 228 228 231 232 226 224
272 271 271 270 269 267 266 264 262 260 259 259 258 258 259 259 260 262 264 266 268 270 271 271 273 273 275 275 272 272 272 271 264 250 238 236 239 237 237 240 237 238 240 241 241 238 237 236 236 235 234 232 231 231 231 233 235 235 237 232 220 215 215 214 218 224 231 239 246 252 247 232 225 221 221 233 245 250 248 243 235 229 229 229 231 233 229 225
272 271 270 270 269 268 266 264 262 261 259 258 257 257 256 257 258 259 261 264 266 267 269 270 271 272 274 274 272 273 271 269 264 254 239 232 238 240 238 239 237 237 240 241 242 241 238 237 237 236 236 235 235 235 233 233 234 235 239 238 231 227 224 223 225 227 234 243 248 252 249 236 230 227 221 228 239 248 251 247 235 225 223 229 234 232 231 230
272 272 271 270 269 268 266 264 263 261 259 258 256 256 255 255 255 256 258 260 263 265 267 269 270 272 275 275 274 274 270 265 260 255 243 231 234 239 240 241 239 238 240 241 242 240 239 239 238 236 236 237 238 238 238 239 237 236 238 237 236 236 233 232 233 233 238 246 251 253 252 241 231 231 226 226 231 240 252 254 245 233 226 228 233 231 231 232
273 273 273 272 271 270 267 265 263 261 259 258 256 255 254 254 254 254 256 257 260 262 265 267 269 272 274 276 276 273 267 261 255 251 243 234 234 237 240 242 242 240 241 243 242 241 239 239 239 236 236 239 238 237 239 241 240 239 239 239 239 239 237 237 235 234 239 248 252 251 254 247 231 228 228 224 230 232 241 250 250 246 237 229 229 231 230 231
273 273 273 273 272 271 270 267 264 261 259 257 256 254 253 253 253 253 253 255 257 259 262 265 268 272 275 277 278 274 269 261 257 252 243 238 236 238 239 241 244 242 241 243 244 243 240 239 240 236 236 240 239 238 240 240 240 239 240 241 242 243 242 239 236 237 240 245 249 247 251 252 237 226 228 225 227 227 232 245 252 251 244 234 230 231 234 235
273 273 273 273 273 272 271 269 267 263 260 257 256 254 253 252 251 252 252 253 255 257 260 263 267 272 275 278 276 273 268 258 255 251 241 237 237 239 240 239 242 244 242 242 243 245 242 240 240 237 237 240 239 240 242 241 241 243 244 243 243 246 247 244 237 237 242 244 247 245 245 250 244 228 226 224 219 226 240 250 252 249 247 244 241 235 236 238
273 274 274 273 273 272 271 270 268 266 262 259 256 254 253 251 250 250 251 252 253 256 258 261 265 270 273 276 272 268 263 255 249 246 239 235 237 239 241 240 241 244 244 243 243 244 244 242 241 239 237 239 241 243 244 244 246 247 248 247 246 247 249 249 243 239 240 243 249 250 247 248 243 231 225 218 205 226 256 263 248 244 249 251 249 240 236 237
273 274 274 274 274 273 272 270 268 266 264 261 258 255 254 252 250 249 250 252 253 254 256 259 262 266 271 273 271 267 262 256 243 240 238 233 236 240 241 243 242 244 246 245 244 244 245 243 242 241 240 242 244 246 248 249 249 248 248 247 244 241 239 242 243 240 233 233 244 255 259 258 243 224 220 209 196 215 246 258 250 242 247 248 247 243 238 238
275 275 275 275 275 274 273 271 269 267 264 262 260 257 255 253 251 249 248 250 252 252 254 258 258 261 268 270 272 269 260 252 240 236 236 232 236 240 241 244 244 246 248 248 245 244 244 243 244 245 245 245 245 247 248 248 249 247 245 243 240 235 230 233 235 223 212 221 242 257 264 270 264 211 203 198 204 216 228 242 248 247 248 249 247 243 238 237
276 277 277 276 276 275 274 272 270 268 265 263 261 259 257 254 252 250 247 247 250 251 252 255 255 256 263 267 268 268 261 252 243 240 236 230 234 241 242 243 245 246 248 247 244 244 245 244 245 247 247 246 244 246 246 247 247 245 244 242 241 237 227 231 223 189 191 213 239 253 256 266 272 221 194 195 208 220 226 233 242 250 251 253 251 244 240 237
278 278 278 277 276 276 275 273 271 269 267 264 262 260 258 255 253 251 248 245 247 251 251 253 255 251 254 263 267 267 263 251 240 241 239 230 230 240 242 241 244 245 245 246 245 246 247 246 246 246 246 245 244 245 245 246 246 244 245 242 245 244 227 226 202 171 182 222 237 246 248 254 264 238 201 201 202 202 216 227 241 253 252 252 254 253 251 244
280 279 279 278 278 277 276 275 272 270 268 266 264 261 259 257 255 253 250 247 243 248 252 250 253 253 252 258 262 263 265 254 235 236 240 234 232 237 239 240 243 244 244 246 248 248 248 246 244 243 244 245 244 244 243 244 243 240 243 243 247 244 213 192 173 171 195 242 240 239 240 244 256 248 215 209 213 208 208 222 242 252 251 253 258 258 256 252
281 281 280 280 279 278 278 277 273 270 269 267 265 263 261 259 258 255 253 250 241 242 252 249 248 255 256 256 258 261 264 258 242 237 237 235 239 240 239 241 242 244 245 246 248 247 246 243 242 241 242 244 243 244 243 242 241 238 240 242 242 227 197 172 169 189 219 247 236 229 231 237 245 244 219 209 219 225 220 227 242 248 250 254 258 258 258 259
281 281 281 280 280 280 279 277 274 272 269 268 267 267 264 261 259 256 254 252 243 235 248 253 249 253 256 256 260 260 257 254 249 246 238 231 240 242 241 242 242 244 245 245 247 246 242 241 241 241 241 242 243 244 245 245 244 243 242 241 231 212 193 182 186 199 215 228 225 222 228 235 239 241 225 209 216 224 226 235 243 247 249 252 257 260 261 261
280 280 279 279 279 279 277 276 275 272 269 270 270 267 264 261 259 256 254 253 248 237 244 252 255 256 256 255 257 257 252 249 245 248 242 233 240 244 243 244 241 244 245 244 244 241 241 240 240 239 236 239 241 241 245 247 248 247 242 235 218 199 186 184 192 200 199 204 219 223 226 231 235 241 235 214 215 223 228 240 248 251 252 252 254 257 259 261
280 279 278 278 277 277 275 273 273 272 270 270 269 266 263 262 258 255 254 253 250 243 242 248 250 251 255 252 250 253 252 244 241 248 248 240 243 243 243 244 242 244 244 245 245 239 237 238 239 238 234 237 239 242 247 248 250 245 231 219 202 190 186 189 198 205 204 209 226 231 229 227 230 237 239 225 219 229 235 243 249 252 255 255 254 258 262 260
279 279 278 278 276 275 274 272 271 270 269 267 265 265 265 262 258 255 253 253 253 249 246 250 248 244 252 254 252 254 253 247 246 251 249 241 242 242 241 245 245 243 241 243 246 243 238 236 236 235 233 235 236 244 254 250 246 228 211 209 197 190 192 196 200 206 206 212 228 235 235 233 230 233 240 236 223 222 231 238 244 250 255 256 256 261 263 259
278 278 277 277 276 275 274 273 271 268 267 266 263 263 263 260 259 256 252 251 253 253 250 250 247 244 251 256 258 258 257 255 251 251 247 240 241 242 240 243 243 240 239 240 240 239 238 235 233 234 236 236 232 237 244 239 232 205 201 203 197 194 196 200 203 204 208 218 228 233 236 239 234 228 234 231 218 216 226 235 240 248 254 256 256 258 259 260
278 278 277 277 276 275 274 273 271 269 267 266 263 262 261 260 259 256 253 252 253 254 251 250 252 252 255 258 257 254 256 258 253 251 249 240 239 242 240 241 240 238 237 238 237 233 232 232 231 235 239 239 233 232 233 228 217 204 200 197 198 196 192 197 202 200 208 224 232 231 236 245 241 228 217 209 211 216 224 234 242 249 253 255 255 254 257 261
279 278 278 277 276 275 274 272 271 269 267 265 264 261 259 258 257 254 254 255 255 256 255 255 256 255 255 256 255 249 248 251 250 253 253 242 238 242 242 242 243 242 240 239 238 232 229 232 234 238 242 242 234 232 235 228 213 204 195 187 196 198 189 195 200 202 210 220 225 228 233 243 241 224 207 203 210 218 222 230 241 247 252 255 255 254 257 262
278 278 277 277 276 274 272 271 270 268 267 265 263 261 259 256 254 254 256 256 251 248 252 256 263 263 258 254 252 248 244 245 245 251 256 251 241 240 241 244 245 247 247 245 242 238 234 234 238 242 245 245 237 231 233 228 213 200 189 184 190 191 190 198 202 207 214 219 222 223 229 239 240 226 209 205 210 218 225 232 237 244 250 255 258 261 264 264
276 276 275 274 274 274 272 269 268 267 266 264 262 261 258 255 255 258 260 255 245 239 239 235 240 258 263 257 253 248 242 242 243 247 254 253 243 234 233 237 239 238 240 242 243 243 241 233 235 241 241 240 239 234 232 226 213 202 195 194 192 185 186 196 205 214 222 227 229 229 236 242 239 234 221 209 212 219 228 234 238 244 252 259 264 267 266 264
275 273 272 272 271 272 272 269 266 266 265 263 262 260 258 258 260 260 257 250 238 236 238 228 216 222 239 249 250 249 243 239 241 246 250 249 240 232 228 229 235 234 228 231 236 238 236 228 231 242 244 240 240 243 239 224 209 212 215 211 202 189 188 192 200 219 231 233 233 233 236 236 234 236 230 218 221 226 229 231 236 243 251 263 266 262 258 259
276 272 270 271 272 272 272 270 266 264 264 263 261 260 261 263 263 257 252 242 227 223 226 227 223 218 219 229 236 241 242 239 238 242 246 246 242 237 231 226 232 235 228 227 231 234 238 234 231 241 248 243 234 233 238 225 207 212 228 223 209 197 200 203 203 212 225 230 227 223 224 226 230 237 236 231 232 234 233 233 237 243 247 258 262 260 258 260
277 275 272 272 273 272 270 269 267 264 264 263 261 262 265 264 259 252 245 235 221 212 214 218 223 224 226 238 244 244 243 239 235 232 235 243 243 237 233 227 227 233 231 230 230 230 238 242 235 236 243 244 237 221 222 225 215 212 223 224 211 204 209 216 213 213 218 224 222 216 221 226 229 235 237 234 235 237 237 237 242 246 247 249 255 260 262 265
279 279 278 277 276 276 274 272 270 268 266 265 265 267 265 259 254 249 242 234 223 216 214 212 212 215 218 233 246 249 249 246 242 233 229 237 239 232 228 225 224 228 227 229 230 227 233 238 235 232 232 238 239 220 210 219 223 223 225 217 213 219 218 217 218 215 216 221 220 216 223 230 231 236 238 233 232 236 238 240 245 250 249 246 250 256 256 260
281 281 281 280 279 279 280 277 274 272 270 268 268 266 261 256 251 245 238 233 228 225 219 211 209 209 206 213 226 238 249 252 250 243 233 235 237 231 225 220 218 219 217 221 227 227 232 234 229 227 227 226 228 218 210 214 217 217 219 208 203 221 231 228 223 219 216 216 217 219 225 228 230 236 240 235 230 232 238 243 248 251 250 247 247 249 247 251
285 285 283 283 282 281 280 278 276 274 273 271 268 265 260 256 251 244 238 232 229 230 225 215 211 210 205 205 208 214 235 248 252 250 244 240 237 233 230 224 217 214 210 212 218 221 230 236 228 220 223 222 217 213 210 213 214 210 211 211 203 207 223 233 228 223 222 220 219 220 224 226 228 233 238 238 233 234 240 247 250 251 251 249 247 247 249 250
291 292 293 295 293 291 288 285 282 278 276 274 270 266 261 255 249 243 237 230 224 227 227 220 216 213 206 202 201 199 206 235 253 254 251 246 240 237 238 233 222 215 212 212 214 214 222 233 232 221 221 221 213 206 202 203 211 212 212 220 221 210 215 227 230 224 223 227 227 223 223 226 227 230 236 237 234 236 239 243 246 250 254 255 252 251 254 255
300 301 303 304 303 300 296 291 286 282 278 274 270 266 261 255 249 240 234 230 224 219 221 222 224 222 208 201 203 200 192 205 243 249 247 246 244 241 238 233 224 216 214 215 216 214 217 227 229 221 219 221 215 205 199 197 200 206 213 223 230 225 219 222 226 225 220 225 231 229 225 227 227 231 237 238 238 239 236 234 240 246 252 257 256 252 252 252
307 310 311 311 310 307 301 296 290 286 281 275 271 267 262 258 252 245 237 230 222 214 215 218 223 225 214 202 204 202 192 196 218 234 238 239 241 241 235 231 226 220 217 216 215 216 218 224 227 220 217 221 218 211 205 203 200 202 210 218 222 229 232 226 225 226 221 220 227 230 228 227 225 228 236 240 242 242 239 238 243 246 249 253 254 250 247 248
313 320 320 318 316 312 306 300 293 289 283 276 271 264 259 256 251 246 237 226 217 214 217 219 221 225 221 209 207 204 200 202 211 223 233 236 238 241 235 230 227 224 222 218 216 218 218 221 225 221 218 221 220 216 212 209 204 200 205 212 212 219 231 231 230 233 230 224 225 227 229 229 228 230 235 240 244 245 245 246 247 247 249 253 254 250 246 245
320 324 327 325 321 316 311 303 295 290 286 280 272 260 253 250 246 240 235 231 228 226 226 226 224 225 223 217 214 209 205 206 212 221 231 236 241 245 241 234 230 230 229 223 219 221 219 220 225 222 218 219 218 218 219 214 205 199 202 208 208 212 221 225 228 234 237 235 230 225 227 230 231 233 236 240 246 251 253 253 251 248 250 253 253 251 248 244
328 328 331 330 325 320 312 305 302 304 301 293 282 265 251 246 243 238 235 236 240 239 237 234 231 230 227 221 220 218 214 210 209 219 228 234 241 246 244 238 234 234 234 226 221 222 220 219 222 224 222 219 216 219 223 219 209 203 205 208 209 212 218 221 224 228 233 238 239 235 234 236 237 239 241 243 248 253 257 259 255 248 246 247 248 248 247 246
333 333 333 333 332 326 310 302 313 316 313 306 298 285 263 248 243 241 237 235 238 242 239 234 234 236 233 227 224 224 223 218 214 217 225 231 238 243 244 241 238 237 237 228 222 223 223 221 222 226 226 223 219 220 225 224 217 212 211 211 211 214 219 223 225 226 227 232 238 242 243 244 244 246 247 249 249 249 252 254 249 243 245 246 243 240 238 239
335 337 337 338 340 334 305 291 306 312 315 312 305 301 284 257 243 239 237 236 238 242 242 236 232 233 233 230 226 225 223 221 219 217 220 225 230 235 240 243 240 240 241 233 224 223 226 228 229 229 227 223 220 220 223 225 226 225 224 220 216 215 218 222 226 229 229 231 235 239 242 243 245 247 248 250 251 248 247 248 246 247 252 248 236 230 228 231
337 341 343 344 346 339 305 283 295 305 313 315 309 306 298 272 246 234 232 233 236 240 242 238 233 231 231 229 228 225 221 221 224 225 225 225 224 222 227 231 231 236 239 235 230 227 229 234 234 230 226 223 220 219 219 224 229 231 232 231 225 217 215 220 226 230 233 235 237 240 241 241 242 245 246 249 251 249 247 251 253 254 257 253 243 238 237 238
342 345 349 351 352 347 319 286 290 302 310 316 316 311 304 289 252 228 227 233 239 241 240 237 234 233 232 229 226 226 223 222 227 231 228 227 227 227 229 232 234 236 238 239 239 236 234 235 234 232 230 230 229 227 225 228 235 236 234 231 227 221 218 220 226 231 235 239 243 246 246 246 246 247 247 249 253 254 253 255 256 256 257 257 256 257 257 257
347 350 354 354 355 357 345 308 291 296 307 314 316 313 305 292 255 226 226 234 243 244 241 240 238 236 233 229 225 227 228 227 229 232 230 229 232 237 239 239 241 242 241 243 244 239 237 234 231 232 234 235 238 238 235 233 238 241 238 235 232 229 226 226 228 231 234 238 243 247 248 249 250 250 250 249 250 253 255 256 255 253 253 255 260 267 270 270
350 354 356 355 357 2 2 344 308 293 299 309 313 313 303 283 260 241 234 237 244 245 241 239 238 237 235 230 226 228 231 231 231 233 232 230 231 234 237 238 241 243 240 239 240 237 236 232 226 228 233 234 236 240 241 238 238 241 243 244 243 242 240 238 235 232 232 236 243 247 248 248 248 247 247 246 245 247 250 251 252 252 252 256 263 267 268 268
354 359 359 357 359 2 6 4 344 316 307 305 311 317 307 283 269 261 249 245 248 248 243 238 234 232 232 228 225 227 230 230 229 231 231 230 228 231 236 238 240 242 243 245 246 240 234 229 224 226 232 232 231 235 239 240 240 241 244 248 250 248 247 246 244 240 236 237 243 246 245 244 245 244 245 245 244 245 247 250 254 257 257 258 261 262 260 258